Weather History for Abilene Dyess, TX

Change the Weather History Date:

Tuesday, August 12, 2014

  Actual Average Record
Temperature  
Mean Temperature 84 °F -  
Max Temperature 95 °F 93 °F 108 °F (2012)
Min Temperature 74 °F 72 °F 62 °F (2004)
Cooling Degree Days 20    
Growing Degree Days 34 (Base 50)    
Moisture  
Dew Point 59 °F    
Average Humidity 46    
Maximum Humidity 70    
Minimum Humidity 24    
Precipitation  
Precipitation 0.00 in - - ()
Sea Level Pressure  
Sea Level Pressure 29.99 in    
Wind  
Wind Speed 5 mph (NE)    
Max Wind Speed 15 mph    
Max Gust Speed 22 mph    
Visibility 10 miles    
Events      
Averages and records for this station are not official NWS values.
T = Trace of Precipitation, MM = Missing Value Source: NWS Daily Summary

Daily Weather History Graph

Daily Weather History Graph

Search for Another Location

Airport:

Trip Planner

Search our weather history database for the weather conditions in past years. The results will help you decide how hot, cold, wet, or windy it might be!

Date:

Astronomy

Aug. 12, 2014 Rise Set
Actual Time 7:01 AM CDT 8:26 PM CDT
Civil Twilight 6:35 AM CDT 8:52 PM CDT
Nautical Twilight 6:04 AM CDT 9:24 PM CDT
Astronomical Twilight 5:31 AM CDT 9:56 PM CDT
Moon 9:48 PM CDT (8/12) 9:10 AM CDT (8/12)
Length of Visible Light 14h 17m
Length of Day
13h 25m
Waning Gibbous, 94% of the Moon is Illuminated
Aug 12
Waning Gibbous
Aug 17
Last Quarter
Aug 25
New
Sep 2
First Quarter
Sep 8
Full

Hourly Weather History & Observations

Time (CDT) Temp. Heat Index Dew Point Humidity Pressure Visibility Wind Dir Wind Speed Gust Speed Precip Events Conditions
12:58 AM 76.3 °F - 61.7 °F 60% 29.98 in 10.0 mi West 2.3 mph - 0.00 in   Clear
1:58 AM 77.2 °F - 63.1 °F 62% 29.99 in 10.0 mi West 2.3 mph - N/A   Clear
2:58 AM 74.3 °F - 62.6 °F 67% 29.98 in 10.0 mi NNW 4.6 mph - N/A   Clear
3:58 AM 75.0 °F - 62.8 °F 66% 29.98 in 10.0 mi West 2.3 mph - N/A   Scattered Clouds
4:58 AM 75.4 °F - 63.0 °F 65% 29.98 in 10.0 mi Calm Calm - N/A   Mostly Cloudy
5:58 AM 74.1 °F - 62.8 °F 68% 29.99 in 10.0 mi West 4.6 mph - N/A   Overcast
6:58 AM 75.2 °F - 63.7 °F 67% 29.99 in 10.0 mi NNW 4.6 mph - N/A   Mostly Cloudy
7:58 AM 76.1 °F - 65.8 °F 70% 30.02 in 10.0 mi North 5.8 mph - N/A   Mostly Cloudy
8:58 AM 76.3 °F - 65.7 °F 70% 30.03 in 10.0 mi North 4.6 mph - N/A   Scattered Clouds
9:58 AM 77.2 °F - 66.6 °F 70% 30.17 in 10.0 mi North 2.3 mph - N/A   Scattered Clouds
10:58 AM 79.0 °F - 67.3 °F 67% 30.05 in 10.0 mi Variable 1.2 mph - N/A   Scattered Clouds
12:58 PM 86.4 °F 89.0 °F 66.7 °F 52% 30.03 in 10.0 mi Variable 4.6 mph - N/A   Partly Cloudy
1:58 PM 89.6 °F 91.8 °F 65.8 °F 45% 29.98 in 10.0 mi Variable 5.8 mph - N/A   Clear
3:58 PM 93.0 °F 93.0 °F 61.2 °F 34% 29.93 in 10.0 mi East 10.4 mph - N/A   Partly Cloudy
4:51 PM 95.0 °F 93.7 °F 57.2 °F 28% 30.04 in 10.0 mi ENE 15.0 mph - N/A   Partly Cloudy
4:58 PM 95.7 °F 94.3 °F 56.7 °F 27% 29.90 in 10.0 mi East 12.7 mph - N/A   Partly Cloudy
5:34 PM 95.0 °F 93.0 °F 55.4 °F 26% 30.04 in 10.0 mi East 12.7 mph 21.9 mph N/A   Partly Cloudy
5:42 PM 95.0 °F 93.0 °F 55.4 °F 26% 30.04 in 10.0 mi ENE 12.7 mph 20.7 mph N/A   Partly Cloudy
5:58 PM 94.8 °F 93.1 °F 55.6 °F 27% 29.89 in 10.0 mi NE 15.0 mph 19.6 mph N/A   Clear
6:16 PM 95.0 °F 92.7 °F 53.6 °F 25% 30.04 in 10.0 mi East 12.7 mph - N/A   Clear
6:58 PM 93.7 °F - 51.8 °F 24% 29.89 in 10.0 mi East 11.5 mph - N/A   Clear
7:58 PM 90.7 °F - 49.6 °F 24% 29.91 in 10.0 mi East 11.5 mph - N/A   Clear
8:58 PM 85.5 °F - 47.3 °F 26% 29.93 in 10.0 mi East 4.6 mph - N/A   Clear
9:58 PM 82.4 °F - 51.1 °F 34% 29.97 in 10.0 mi East 4.6 mph - N/A   Clear
10:58 PM 79.5 °F - 51.6 °F 38% 29.99 in 10.0 mi Variable 2.3 mph - N/A   Clear
11:58 PM 76.5 °F - 50.0 °F 39% 29.99 in 10.0 mi SSE 6.9 mph - N/A   Clear